Regional Weather Roundup
Issued by NWS

Home | Current Version | Previous Version | Graphics & Text | Print | Product List | Glossary Off
Versions: 1 2 3 4 5 6 7 8 9 10 11 12 13 14 15 16 17 18 19 20 21 22 23 24 25 26 27 28 29 30 31 32 33 34 35 36 37 38 39 40 41 42 43 44 45 46 47 48 49 50

000
ASUS43 KTOP 171359
RWRKS

WEATHER ROUNDUP FOR KANSAS
NATIONAL WEATHER SERVICE GOODLAND KS
800 AM CST WED DEC 17 2014

NOTE:  "FAIR" INDICATES FEW OR NO CLOUDS BELOW 12,000 FEET WITH NO
SIGNIFICANT WEATHER AND/OR OBSTRUCTIONS TO VISIBILITY.

KSZ001>006-013>018-027>032-041>047-171500-
NORTHWEST KANSAS

CITY           SKY/WX    TMP DP  RH WIND       PRES   REMARKS
GOODLAND       FOG       23  22  96 E10       30.08S VSB 3/4 WCI  12
HAYS           CLOUDY    25  16  68 E14       30.20S WCI  13
HILL CITY      CLOUDY    22  20  92 E12       30.21S WCI  10
RUSSELL        CLOUDY    24  22  91 E12       30.22S WCI  13
$$

KSZ061>065-074>080-084>089-171500-
SOUTHWEST KANSAS

CITY           SKY/WX    TMP DP  RH WIND       PRES   REMARKS
DODGE CITY     CLOUDY    30  23  75 SE16      30.14R WCI  19
ELKHART          N/A     29  21  72 S9          N/A
GARDEN CITY    PTCLDY    28  24  85 SE14      30.07R WCI  17
GREAT BEND     CLOUDY    27  19  74 SE13      30.21F WCI  16
LIBERAL        MOCLDY    34  25  69 SE13      30.08F WCI  25
$$

KSZ066>073-081>083-090>101-171500-
SOUTHEAST KANSAS

CITY           SKY/WX    TMP DP  RH WIND       PRES   REMARKS
CHANUTE        CLOUDY    27  23  85 E7        30.33F
COFFEYVILLE    CLOUDY    30  25  81 NE7       30.32F
HUTCHINSON     CLOUDY    28  22  78 E8        30.27R
MEDICINE LODGE   N/A     31  25  78 SE9G17    30.22F
NEWTON         CLOUDY    25  19  80 E8        30.29R
PARSONS        CLOUDY    29  25  85 NE5       30.34S
WICHITA INTL   CLOUDY    29  23  78 SE10      30.28S WCI  20
WICHITA JABRA  CLOUDY    27  23  85 SE6       30.29R
WINFIELD       CLOUDY    30  24  78 SE6       30.33R
$$

KSZ007>012-019>026-033>040-048>060-102>105-171500-
NORTHEAST KANSAS

CITY           SKY/WX    TMP DP  RH WIND       PRES   REMARKS
CONCORDIA      CLOUDY    23  20  88 E9        30.29S
EMPORIA        CLOUDY    24  22  91 E5        30.31F
LAWRENCE       MOCLDY    23  18  81 CALM      30.37R
MANHATTAN      CLOUDY    24  17  74 E9        30.33S
OLATHE IND     CLOUDY    24  20  84 N6        30.34R
OLATHE EXE     CLOUDY    25  20  81 N3        30.33R
SALINA         CLOUDY    26  21  81 E6        30.30F
TOPEKA BILLARD CLOUDY    24  17  74 N5        30.37R
TOPEKA FORBES  CLOUDY    25  18  74 NE5       30.34S
$$



USA.gov is the U.S. government's official web portal to all federal, state and local government web resources and services.